Total_Precipitation_Accumulation
0.00 0.00 0.00 0.00 0.00 0.00 0.00 0.00 0.00 0.00 0.00 0.00 0.00 0.00 0.00 0.00 0.00 0.00 0.00 0.00 0.00 0.00 0.00 0.00 0.04 0.06 0.15 0.15 0.16 0.16 0.19 0.30 0.45 0.23 0.20 0.25 0.22 0.17 0.21 0.21 0.21 0.10 0.08
0.00 0.00 0.00 0.00 0.00 0.00 0.00 0.00 0.00 0.00 0.00 0.00 0.00 0.00 0.00 0.00 0.00 0.00 0.00 0.00 0.00 0.00 0.00 0.01 0.06 0.12 0.16 0.26 0.30 0.29 0.30 0.31 0.52 0.53 0.42 0.38 0.27 0.20 0.20 0.27 0.32 0.16 0.08
0.00 0.00 0.00 0.00 0.00 0.00 0.00 0.00 0.00 0.00 0.00 0.00 0.00 0.00 0.00 0.00 0.00 0.00 0.01 0.00 0.00 0.00 0.00 0.01 0.05 0.13 0.21 0.26 0.29 0.32 0.39 0.42 0.50 0.57 0.58 0.55 0.40 0.33 0.26 0.27 0.38 0.25 0.07
0.00 0.00 0.00 0.01 0.00 0.00 0.00 0.00 0.00 0.00 0.00 0.00 0.00 0.00 0.00 0.00 0.00 0.00 0.00 0.01 0.01 0.01 0.01 0.01 0.03 0.07 0.21 0.33 0.33 0.32 0.50 0.65 0.63 0.68 0.61 0.72 0.58 0.49 0.52 0.36 0.47 0.37 0.10
0.00 0.00 0.02 0.02 0.01 0.02 0.01 0.00 0.00 0.00 0.01 0.02 0.04 0.02 0.00 0.00 0.00 0.00 0.00 0.00 0.02 0.02 0.02 0.02 0.01 0.07 0.21 0.29 0.40 0.33 0.39 0.47 0.77 0.79 0.77 0.96 0.68 0.53 0.54 0.47 0.58 0.48 0.22
0.00 0.00 0.02 0.02 0.03 0.03 0.03 0.02 0.01 0.01 0.01 0.04 0.08 0.08 0.04 0.02 0.01 0.00 0.00 0.00 0.01 0.02 0.03 0.02 0.01 0.04 0.13 0.19 0.21 0.34 0.47 0.66 0.68 0.70 0.82 0.93 0.71 0.54 0.43 0.49 0.79 0.80 0.62
0.00 0.01 0.02 0.02 0.03 0.05 0.04 0.03 0.03 0.03 0.03 0.06 0.08 0.08 0.07 0.05 0.04 0.03 0.03 0.02 0.01 0.00 0.01 0.01 0.00 0.01 0.03 0.05 0.15 0.27 0.43 0.50 0.47 0.59 0.70 0.63 0.72 0.56 0.45 0.41 0.71 0.94 0.58
0.00 0.00 0.00 0.01 0.01 0.02 0.03 0.03 0.05 0.06 0.07 0.09 0.10 0.08 0.05 0.04 0.06 0.09 0.11 0.07 0.04 0.02 0.00 0.00 0.01 0.01 0.02 0.06 0.06 0.06 0.12 0.34 0.51 0.35 0.49 0.69 0.69 0.51 0.50 0.42 0.56 1.03 0.65
0.00 0.00 0.00 0.00 0.00 0.00 0.03 0.05 0.05 0.08 0.07 0.08 0.11 0.12 0.07 0.02 0.05 0.14 0.20 0.19 0.13 0.09 0.04 0.01 0.02 0.03 0.04 0.13 0.21 0.14 0.07 0.04 0.38 0.73 0.49 0.65 0.94 0.77 0.54 0.61 0.62 1.12 0.97
0.00 0.00 0.00 0.00 0.00 0.00 0.01 0.04 0.07 0.07 0.06 0.09 0.11 0.11 0.08 0.05 0.08 0.13 0.27 0.29 0.18 0.15 0.09 0.04 0.03 0.07 0.09 0.17 0.19 0.17 0.11 0.05 0.07 0.50 0.71 0.66 0.61 0.63 0.58 0.55 0.67 1.23 1.41
0.00 0.00 0.00 0.00 0.00 0.01 0.01 0.02 0.07 0.08 0.06 0.08 0.11 0.12 0.10 0.08 0.10 0.14 0.30 0.29 0.18 0.16 0.09 0.02 0.03 0.07 0.11 0.23 0.28 0.26 0.23 0.17 0.07 0.11 0.75 0.65 0.41 0.55 0.39 0.34 0.63 1.53 2.00
0.00 0.00 0.00 0.00 0.00 0.01 0.03 0.02 0.03 0.08 0.09 0.10 0.13 0.12 0.12 0.10 0.12 0.19 0.28 0.26 0.15 0.06 0.02 0.00 0.03 0.06 0.12 0.28 0.27 0.25 0.24 0.12 0.03 0.05 0.44 0.68 0.43 0.36 0.15 0.15 0.62 1.53 2.02
0.01 0.00 0.00 0.00 0.00 0.00 0.01 0.04 0.04 0.06 0.12 0.13 0.16 0.14 0.17 0.14 0.14 0.23 0.23 0.22 0.12 0.04 0.02 0.01 0.03 0.07 0.09 0.13 0.19 0.26 0.16 0.10 0.06 0.05 0.11 0.51 0.26 0.11 0.08 0.25 0.74 1.97 1.80
0.01 0.01 0.00 0.00 0.00 0.00 0.01 0.03 0.07 0.07 0.12 0.15 0.18 0.19 0.23 0.21 0.21 0.31 0.29 0.16 0.09 0.04 0.01 0.00 0.01 0.06 0.09 0.13 0.15 0.25 0.13 0.20 0.18 0.05 0.05 0.19 0.29 0.16 0.12 0.38 1.10 1.73 1.65
0.01 0.02 0.02 0.01 0.00 0.00 0.01 0.02 0.04 0.08 0.12 0.18 0.17 0.18 0.26 0.25 0.25 0.32 0.16 0.10 0.08 0.02 0.01 0.00 0.01 0.05 0.06 0.09 0.11 0.22 0.17 0.22 0.26 0.12 0.12 0.22 0.29 0.21 0.14 0.33 0.78 1.26 1.36
0.02 0.03 0.05 0.03 0.02 0.01 0.01 0.03 0.10 0.18 0.23 0.27 0.26 0.25 0.30 0.27 0.27 0.18 0.08 0.07 0.02 0.00 0.00 0.01 0.02 0.08 0.10 0.16 0.19 0.19 0.16 0.30 0.32 0.23 0.22 0.23 0.29 0.19 0.23 0.32 0.53 0.96 1.09
0.06 0.03 0.12 0.10 0.08 0.07 0.03 0.07 0.17 0.22 0.30 0.33 0.35 0.33 0.32 0.42 0.27 0.13 0.10 0.04 0.00 0.00 0.00 0.01 0.04 0.11 0.16 0.22 0.24 0.29 0.21 0.28 0.41 0.38 0.26 0.29 0.33 0.28 0.30 0.44 0.51 0.63 0.92
0.12 0.12 0.24 0.27 0.16 0.13 0.10 0.13 0.18 0.22 0.36 0.42 0.44 0.34 0.30 0.29 0.19 0.12 0.03 0.00 0.00 0.00 0.00 0.01 0.03 0.10 0.19 0.29 0.28 0.34 0.25 0.28 0.40 0.50 0.25 0.29 0.34 0.45 0.24 0.46 0.32 0.40 0.67
0.31 0.30 0.38 0.48 0.28 0.19 0.20 0.20 0.24 0.28 0.36 0.40 0.40 0.39 0.29 0.19 0.13 0.03 0.00 0.00 0.00 0.00 0.00 0.00 0.01 0.08 0.18 0.28 0.34 0.41 0.37 0.32 0.48 0.66 0.36 0.26 0.35 0.58 0.29 0.43 0.36 0.37 0.50
0.55 0.54 0.56 0.66 0.45 0.30 0.26 0.21 0.23 0.33 0.37 0.36 0.28 0.28 0.27 0.16 0.06 0.00 0.00 0.00 0.00 0.01 0.00 0.00 0.00 0.06 0.16 0.25 0.31 0.43 0.47 0.42 0.54 0.69 0.47 0.31 0.42 0.43 0.51 0.42 0.30 0.13 0.17
0.60 0.51 0.74 0.66 0.49 0.33 0.26 0.24 0.31 0.36 0.39 0.37 0.23 0.13 0.08 0.03 0.01 0.00 0.00 0.00 0.01 0.01 0.00 0.00 0.00 0.02 0.11 0.24 0.28 0.41 0.53 0.56 0.87 0.75 0.71 0.40 0.53 0.40 0.66 0.38 0.22 0.14 0.15
0.58 0.65 0.62 0.59 0.57 0.48 0.41 0.40 0.35 0.31 0.27 0.19 0.16 0.11 0.06 0.02 0.01 0.01 0.00 0.00 0.00 0.01 0.00 0.00 0.00 0.01 0.04 0.16 0.25 0.33 0.50 0.52 0.70 0.90 0.94 0.53 0.48 0.58 0.57 0.63 0.18 0.10 0.14
0.63 0.62 0.62 0.54 0.54 0.51 0.42 0.34 0.27 0.21 0.19 0.15 0.09 0.07 0.02 0.01 0.01 0.01 0.01 0.00 0.00 0.00 0.00 0.00 0.00 0.00 0.01 0.07 0.17 0.28 0.40 0.51 0.56 0.79 1.00 0.82 0.57 0.61 0.59 0.54 0.19 0.08 0.08
0.67 0.59 0.54 0.51 0.50 0.45 0.37 0.36 0.30 0.20 0.13 0.09 0.03 0.03 0.02 0.01 0.01 0.01 0.01 0.00 0.00 0.00 0.01 0.00 0.00 0.00 0.00 0.02 0.10 0.19 0.29 0.41 0.46 0.52 0.82 0.83 0.75 0.64 0.57 0.38 0.21 0.08 0.06
0.42 0.44 0.40 0.37 0.34 0.32 0.30 0.23 0.18 0.12 0.09 0.06 0.03 0.02 0.01 0.01 0.01 0.01 0.01 0.01 0.01 0.01 0.00 0.00 0.00 0.01 0.01 0.02 0.05 0.08 0.15 0.25 0.38 0.53 0.52 0.64 0.86 0.62 0.44 0.41 0.20 0.12 0.06
0.12 0.12 0.16 0.17 0.18 0.17 0.14 0.15 0.14 0.11 0.09 0.08 0.06 0.06 0.05 0.03 0.03 0.00 0.01 0.01 0.02 0.02 0.01 0.01 0.01 0.02 0.02 0.02 0.03 0.06 0.07 0.12 0.39 0.60 0.51 0.51 0.71 0.74 0.54 0.49 0.29 0.15 0.12